• In Romania
  • List of Countries
  • For 7 days
  • Water Temperature
  • Satellite Maps
  • Weather Map
  • Weather Widgets
  • user-avatar
    Login

    Hourly Weather Shusha

    Today, 24 June, Saturday

    Time Temperature Precipitation Wind Pressure Humidity
    00:00 +13°C° 0.1 mm 1 mps 660 mmHg 81%
    01:00 +12°C° 0.1 mm 1 mps 660 mmHg 82%
    02:00 +12°C° 0.1 mm 1 mps 660 mmHg 83%
    03:00 +12°C° 0.1 mm 1 mps 659 mmHg 84%
    04:00 +13°C° 0 mm 1 mps 660 mmHg 81%
    05:00 +14°C° 0 mm 1 mps 660 mmHg 77%
    06:00 +16°C° 0 mm 1 mps 661 mmHg 74%
    07:00 +18°C° 0 mm 1 mps 661 mmHg 67%
    08:00 +20°C° 0 mm 1 mps 661 mmHg 61%
    09:00 +21°C° 0 mm 1 mps 662 mmHg 54%
    10:00 +23°C° 0 mm 2 mps 662 mmHg 51%
    11:00 +24°C° 0 mm 2 mps 661 mmHg 48%
    12:00 +25°C° 0 mm 2 mps 661 mmHg 45%
    13:00 +25°C° 0 mm 2 mps 661 mmHg 44%
    14:00 +26°C° 0 mm 2 mps 660 mmHg 43%
    15:00 +26°C° 0 mm 2 mps 660 mmHg 42%
    16:00 +25°C° 0 mm 2 mps 660 mmHg 44%
    17:00 +25°C° 0 mm 2 mps 660 mmHg 46%
    18:00 +24°C° 0 mm 2 mps 659 mmHg 48%
    19:00 +22°C° 0 mm 1 mps 659 mmHg 57%
    20:00 +19°C° 0 mm 1 mps 659 mmHg 65%
    21:00 +16°C° 0 mm 1 mps 658 mmHg 73%
    22:00 +15°C° 0 mm 1 mps 658 mmHg 73%
    23:00 +15°C° 0 mm 1 mps 658 mmHg 72%

    Tomorrow, 25 June, Sunday

    Time Temperature Precipitation Wind Pressure Humidity
    00:00 +15°C° 0 mm 1 mps 658 mmHg 71%
    01:00 +15°C° 0 mm 1 mps 658 mmHg 72%
    02:00 +15°C° 0 mm 1 mps 658 mmHg 73%
    03:00 +14°C° 0 mm 1 mps 658 mmHg 74%
    04:00 +16°C° 0 mm 1 mps 659 mmHg 71%
    05:00 +18°C° 0 mm 1 mps 659 mmHg 67%
    06:00 +19°C° 0 mm 1 mps 660 mmHg 64%
    07:00 +21°C° 0 mm 1 mps 660 mmHg 57%
    08:00 +23°C° 0 mm 2 mps 660 mmHg 51%
    09:00 +25°C° 0 mm 2 mps 661 mmHg 44%
    10:00 +26°C° 0.1 mm 2 mps 661 mmHg 42%
    11:00 +27°C° 0.1 mm 3 mps 661 mmHg 40%
    12:00 +28°C° 0.1 mm 3 mps 661 mmHg 39%
    13:00 +28°C° 0.2 mm 3 mps 661 mmHg 38%
    14:00 +28°C° 0.2 mm 3 mps 661 mmHg 38%
    15:00 +28°C° 0.2 mm 3 mps 660 mmHg 38%
    16:00 +27°C° 0.1 mm 3 mps 660 mmHg 40%
    17:00 +26°C° 0.1 mm 3 mps 660 mmHg 42%
    18:00 +26°C° 0.1 mm 3 mps 660 mmHg 43%
    19:00 +23°C° 0 mm 2 mps 660 mmHg 53%
    20:00 +19°C° 0 mm 2 mps 660 mmHg 62%
    21:00 +16°C° 0 mm 2 mps 660 mmHg 72%
    22:00 +16°C° 0 mm 2 mps 660 mmHg 72%
    23:00 +16°C° 0 mm 2 mps 661 mmHg 72%

    Day after tomorrow, 26 June, Monday

    Time Temperature Precipitation Wind Pressure Humidity
    00:00 +16°C° 0 mm 2 mps 661 mmHg 72%
    01:00 +15°C° 0 mm 1 mps 661 mmHg 73%
    02:00 +15°C° 0 mm 1 mps 661 mmHg 74%
    03:00 +14°C° 0 mm 1 mps 661 mmHg 75%
    04:00 +16°C° 0 mm 1 mps 661 mmHg 71%
    05:00 +18°C° 0 mm 1 mps 662 mmHg 68%
    06:00 +19°C° 0 mm 1 mps 663 mmHg 65%
    07:00 +20°C° 0 mm 2 mps 663 mmHg 59%
    08:00 +21°C° 0 mm 3 mps 664 mmHg 53%
    09:00 +24°C° 0 mm 3 mps 664 mmHg 47%
    10:00 +25°C° 0 mm 3 mps 664 mmHg 45%
    11:00 +26°C° 0 mm 4 mps 664 mmHg 43%
    12:00 +27°C° 0 mm 4 mps 664 mmHg 41%
    13:00 +27°C° 0 mm 4 mps 663 mmHg 41%
    14:00 +27°C° 0 mm 4 mps 663 mmHg 41%
    15:00 +27°C° 0 mm 4 mps 663 mmHg 41%
    16:00 +26°C° 0 mm 4 mps 663 mmHg 45%
    17:00 +25°C° 0 mm 3 mps 662 mmHg 48%
    18:00 +24°C° 0 mm 3 mps 662 mmHg 51%
    19:00 +21°C° 0 mm 3 mps 662 mmHg 59%
    20:00 +19°C° 0 mm 2 mps 662 mmHg 67%
    21:00 +16°C° 0 mm 1 mps 662 mmHg 74%
    22:00 +16°C° 0 mm 1 mps 661 mmHg 75%
    23:00 +16°C° 0 mm 1 mps 661 mmHg 75%

    27 June, Tuesday

    Time Temperature Precipitation Wind Pressure Humidity
    00:00 +15°C° 0 mm 1 mps 661 mmHg 75%
    01:00 +15°C° 0 mm 1 mps 661 mmHg 76%
    02:00 +14°C° 0 mm 1 mps 661 mmHg 77%
    03:00 +14°C° 0 mm 1 mps 660 mmHg 78%
    04:00 +15°C° 0 mm 1 mps 661 mmHg 74%
    05:00 +18°C° 0 mm 1 mps 661 mmHg 70%
    06:00 +19°C° 0 mm 1 mps 662 mmHg 65%
    07:00 +21°C° 0 mm 1 mps 662 mmHg 57%
    08:00 +23°C° 0 mm 1 mps 663 mmHg 49%
    09:00 +25°C° 0 mm 1 mps 663 mmHg 41%
    10:00 +27°C° 0 mm 2 mps 663 mmHg 38%
    11:00 +28°C° 0 mm 2 mps 663 mmHg 35%
    12:00 +29°C° 0 mm 2 mps 663 mmHg 33%
    13:00 +30°C° 0 mm 2 mps 662 mmHg 32%
    14:00 +30°C° 0 mm 2 mps 662 mmHg 32%
    15:00 +30°C° 0 mm 2 mps 662 mmHg 31%
    16:00 +30°C° 0 mm 2 mps 662 mmHg 34%
    17:00 +29°C° 0 mm 2 mps 661 mmHg 36%
    18:00 +28°C° 0 mm 2 mps 661 mmHg 39%
    19:00 +25°C° 0 mm 2 mps 661 mmHg 47%
    20:00 +22°C° 0 mm 1 mps 661 mmHg 55%
    21:00 +19°C° 0 mm 1 mps 660 mmHg 64%
    22:00 +19°C° 0 mm 1 mps 660 mmHg 64%
    23:00 +18°C° 0 mm 1 mps 660 mmHg 64%

    28 June, Wednesday

    Time Temperature Precipitation Wind Pressure Humidity
    00:00 +18°C° 0 mm 1 mps 660 mmHg 64%
    01:00 +18°C° 0 mm 1 mps 660 mmHg 65%
    02:00 +16°C° 0 mm 1 mps 660 mmHg 66%
    03:00 +16°C° 0 mm 1 mps 660 mmHg 67%
    04:00 +18°C° 0 mm 1 mps 660 mmHg 64%
    05:00 +20°C° 0 mm 1 mps 661 mmHg 61%
    06:00 +21°C° 0 mm 1 mps 661 mmHg 57%
    07:00 +23°C° 0 mm 1 mps 662 mmHg 50%
    08:00 +25°C° 0 mm 1 mps 662 mmHg 43%
    09:00 +27°C° 0 mm 2 mps 663 mmHg 36%
    10:00 +28°C° 0 mm 2 mps 662 mmHg 34%
    11:00 +29°C° 0 mm 2 mps 662 mmHg 32%
    12:00 +30°C° 0 mm 3 mps 662 mmHg 30%
    13:00 +30°C° 0 mm 3 mps 662 mmHg 30%
    14:00 +31°C° 0 mm 3 mps 661 mmHg 29%
    15:00 +31°C° 0 mm 3 mps 661 mmHg 29%
    16:00 +30°C° 0 mm 3 mps 661 mmHg 32%
    17:00 +29°C° 0 mm 3 mps 660 mmHg 34%
    18:00 +28°C° 0 mm 3 mps 660 mmHg 36%
    19:00 +25°C° 0 mm 2 mps 660 mmHg 43%
    20:00 +21°C° 0 mm 2 mps 659 mmHg 51%
    21:00 +19°C° 0 mm 1 mps 659 mmHg 58%
    22:00 +19°C° 0 mm 1 mps 659 mmHg 57%
    23:00 +18°C° 0 mm 1 mps 659 mmHg 57%

    29 June, Thursday

    Time Temperature Precipitation Wind Pressure Humidity
    00:00 +18°C° 0 mm 1 mps 659 mmHg 56%
    01:00 +18°C° 0 mm 1 mps 659 mmHg 57%
    02:00 +16°C° 0 mm 1 mps 658 mmHg 57%
    03:00 +16°C° 0 mm 1 mps 658 mmHg 57%
    04:00 +18°C° 0 mm 1 mps 659 mmHg 54%
    05:00 +20°C° 0 mm 1 mps 659 mmHg 51%
    06:00 +21°C° 0 mm 1 mps 660 mmHg 48%
    07:00 +23°C° 0 mm 1 mps 660 mmHg 44%
    08:00 +25°C° 0 mm 2 mps 661 mmHg 39%
    09:00 +27°C° 0 mm 2 mps 661 mmHg 34%
    10:00 +28°C° 0 mm 2 mps 661 mmHg 33%
    11:00 +29°C° 0 mm 3 mps 661 mmHg 32%
    12:00 +30°C° 0 mm 3 mps 660 mmHg 31%
    13:00 +30°C° 0 mm 3 mps 660 mmHg 31%
    14:00 +30°C° 0 mm 3 mps 660 mmHg 31%
    15:00 +30°C° 0 mm 3 mps 660 mmHg 31%
    16:00 +29°C° 0 mm 3 mps 659 mmHg 33%
    17:00 +29°C° 0 mm 3 mps 659 mmHg 35%
    18:00 +28°C° 0 mm 3 mps 659 mmHg 38%
    19:00 +25°C° 0 mm 2 mps 658 mmHg 45%
    20:00 +21°C° 0 mm 2 mps 658 mmHg 52%
    21:00 +19°C° 0 mm 1 mps 658 mmHg 60%
    22:00 +19°C° 0 mm 1 mps 658 mmHg 59%
    23:00 +19°C° 0 mm 1 mps 658 mmHg 57%
    Show more